When you browse on this site, cookies collect data to enhance your experience and personalize the content and advertising you see.
Visit our Privacy Policy to learn more. By continuing to use the site, you agree to this use of cookies and data.
  • In Hungary
  • List of Countries
  • For 7 days
  • Water Temperature
  • Satellite Maps
  • Weather Map
  • News
  • Weather Widgets
  • user-avatar
    Login

    Hourly Weather Sidzina

    Today, 21 January, Monday

    Time Temperature Precipitation Wind Pressure Humidity
    00:00 -3°C° 0 mm 1 mps 750 mmHg 71%
    01:00 -3°C° 0 mm 1 mps 751 mmHg 73%
    02:00 -3°C° 0 mm 1 mps 751 mmHg 74%
    03:00 -4°C° 0 mm 1 mps 751 mmHg 74%
    04:00 -4°C° 0 mm 1 mps 751 mmHg 75%
    05:00 -4°C° 0 mm 1 mps 751 mmHg 74%
    06:00 -4°C° 0 mm 1 mps 751 mmHg 74%
    07:00 -4°C° 0 mm 1 mps 751 mmHg 74%
    08:00 -4°C° 0 mm 1 mps 751 mmHg 69%
    09:00 -4°C° 0 mm 0 mps 751 mmHg 65%
    10:00 -3°C° 0 mm 0 mps 751 mmHg 60%
    11:00 -1°C° 0 mm 1 mps 751 mmHg 56%
    12:00 0°C° 0 mm 1 mps 751 mmHg 52%
    13:00 +1°C° 0 mm 1 mps 751 mmHg 48%
    14:00 0°C° 0 mm 1 mps 750 mmHg 51%
    15:00 0°C° 0 mm 1 mps 750 mmHg 53%
    16:00 -1°C° 0 mm 1 mps 750 mmHg 56%
    17:00 -1°C° 0 mm 1 mps 749 mmHg 59%
    18:00 -4°C° 0 mm 2 mps 749 mmHg 62%
    19:00 -4°C° 0 mm 2 mps 749 mmHg 65%
    20:00 -4°C° 0 mm 2 mps 749 mmHg 65%
    21:00 -2°C° 0 mm 1 mps 749 mmHg 65%
    22:00 -2°C° 0 mm 1 mps 749 mmHg 66%
    23:00 -3°C° 0 mm 1 mps 748 mmHg 65%

    Tomorrow, 22 January, Tuesday

    Time Temperature Precipitation Wind Pressure Humidity
    00:00 -3°C° 0 mm 1 mps 748 mmHg 64%
    01:00 -3°C° 0 mm 1 mps 748 mmHg 62%
    02:00 -3°C° 0 mm 1 mps 747 mmHg 61%
    03:00 -3°C° 0 mm 1 mps 747 mmHg 60%
    04:00 -3°C° 0 mm 1 mps 747 mmHg 59%
    05:00 -3°C° 0 mm 1 mps 746 mmHg 59%
    06:00 -3°C° 0 mm 1 mps 746 mmHg 60%
    07:00 -3°C° 0 mm 1 mps 746 mmHg 60%
    08:00 -3°C° 0 mm 1 mps 746 mmHg 57%
    09:00 -2°C° 0 mm 1 mps 746 mmHg 54%
    10:00 -1°C° 0 mm 1 mps 745 mmHg 51%
    11:00 0°C° 0 mm 1 mps 745 mmHg 47%
    12:00 0°C° 0 mm 1 mps 744 mmHg 44%
    13:00 +1°C° 0 mm 1 mps 744 mmHg 41%
    14:00 +1°C° 0 mm 1 mps 743 mmHg 44%
    15:00 0°C° 0 mm 1 mps 743 mmHg 46%
    16:00 0°C° 0 mm 1 mps 742 mmHg 49%
    17:00 -1°C° 0 mm 1 mps 742 mmHg 53%
    18:00 -3°C° 0 mm 2 mps 742 mmHg 57%
    19:00 -4°C° 0 mm 2 mps 742 mmHg 61%
    20:00 -4°C° 0 mm 2 mps 741 mmHg 63%
    21:00 -4°C° 0 mm 2 mps 741 mmHg 64%
    22:00 -4°C° 0 mm 2 mps 741 mmHg 66%
    23:00 -5°C° 0 mm 2 mps 740 mmHg 67%

    Day after tomorrow, 23 January, Wednesday

    Time Temperature Precipitation Wind Pressure Humidity
    00:00 -5°C° 0 mm 2 mps 740 mmHg 68%
    01:00 -5°C° 0 mm 2 mps 740 mmHg 69%
    02:00 -5°C° 0 mm 2 mps 739 mmHg 70%
    03:00 -5°C° 0 mm 2 mps 739 mmHg 71%
    04:00 -6°C° 0 mm 2 mps 739 mmHg 72%
    05:00 -6°C° 0 mm 2 mps 739 mmHg 73%
    06:00 -6°C° 0 mm 2 mps 738 mmHg 75%
    07:00 -7°C° 0 mm 3 mps 738 mmHg 76%
    08:00 -7°C° 0 mm 3 mps 738 mmHg 75%
    09:00 -6°C° 0 mm 3 mps 738 mmHg 74%
    10:00 -7°C° 0 mm 4 mps 738 mmHg 73%
    11:00 -5°C° 0 mm 3 mps 738 mmHg 70%
    12:00 -5°C° 0 mm 3 mps 738 mmHg 67%
    13:00 -4°C° 0 mm 3 mps 738 mmHg 64%
    14:00 -4°C° 0 mm 3 mps 738 mmHg 66%
    15:00 -4°C° 0 mm 3 mps 738 mmHg 68%
    16:00 -5°C° 0 mm 3 mps 738 mmHg 70%
    17:00 -4°C° 0 mm 2 mps 739 mmHg 73%
    18:00 -5°C° 0 mm 2 mps 739 mmHg 76%
    19:00 -5°C° 0 mm 2 mps 739 mmHg 79%
    20:00 -6°C° 0 mm 3 mps 740 mmHg 79%
    21:00 -6°C° 0 mm 3 mps 740 mmHg 79%
    22:00 -7°C° 0 mm 3 mps 741 mmHg 79%
    23:00 -7°C° 0 mm 3 mps 741 mmHg 80%

    24 January, Thursday

    Time Temperature Precipitation Wind Pressure Humidity
    00:00 -7°C° 0 mm 3 mps 741 mmHg 80%
    01:00 -7°C° 0 mm 3 mps 741 mmHg 80%
    02:00 -6°C° 0 mm 2 mps 741 mmHg 80%
    03:00 -6°C° 0 mm 2 mps 742 mmHg 80%
    04:00 -6°C° 0 mm 2 mps 742 mmHg 80%
    05:00 -6°C° 0 mm 2 mps 742 mmHg 80%
    06:00 -6°C° 0 mm 2 mps 742 mmHg 80%
    07:00 -7°C° 0 mm 2 mps 743 mmHg 81%
    08:00 -6°C° 0 mm 2 mps 743 mmHg 78%
    09:00 -6°C° 0 mm 2 mps 743 mmHg 76%
    10:00 -6°C° 0 mm 2 mps 744 mmHg 73%
    11:00 -5°C° 0 mm 2 mps 744 mmHg 70%
    12:00 -4°C° 0 mm 2 mps 743 mmHg 66%
    13:00 -4°C° 0 mm 2 mps 743 mmHg 62%
    14:00 -4°C° 0 mm 2 mps 743 mmHg 64%
    15:00 -4°C° 0 mm 2 mps 743 mmHg 65%
    16:00 -2°C° 0 mm 1 mps 744 mmHg 67%
    17:00 -2°C° 0 mm 1 mps 744 mmHg 70%
    18:00 -3°C° 0 mm 1 mps 744 mmHg 74%
    19:00 -3°C° 0 mm 1 mps 745 mmHg 77%
    20:00 -3°C° 0 mm 1 mps 745 mmHg 78%
    21:00 -3°C° 0 mm 1 mps 745 mmHg 78%
    22:00 -3°C° 0 mm 1 mps 745 mmHg 79%
    23:00 -3°C° 0 mm 1 mps 745 mmHg 79%

    25 January, Friday

    Time Temperature Precipitation Wind Pressure Humidity
    00:00 -5°C° 0 mm 0 mps 745 mmHg 79%
    01:00 -5°C° 0 mm 0 mps 745 mmHg 79%
    02:00 -5°C° 0 mm 0 mps 745 mmHg 80%
    03:00 -5°C° 0 mm 0 mps 745 mmHg 80%
    04:00 -5°C° 0 mm 0 mps 745 mmHg 80%
    05:00 -5°C° 0 mm 0 mps 745 mmHg 80%
    06:00 -4°C° 0 mm 1 mps 745 mmHg 79%
    07:00 -4°C° 0 mm 1 mps 746 mmHg 79%
    08:00 -4°C° 0 mm 1 mps 746 mmHg 77%
    09:00 -6°C° 0 mm 2 mps 746 mmHg 74%
    10:00 -5°C° 0 mm 2 mps 746 mmHg 72%
    11:00 -5°C° 0 mm 2 mps 746 mmHg 69%
    12:00 -4°C° 0 mm 2 mps 746 mmHg 67%
    13:00 -4°C° 0 mm 2 mps 746 mmHg 64%
    14:00 -4°C° 0 mm 2 mps 746 mmHg 65%
    15:00 -4°C° 0 mm 2 mps 746 mmHg 65%
    16:00 -4°C° 0 mm 2 mps 746 mmHg 66%
    17:00 -4°C° 0 mm 2 mps 746 mmHg 68%
    18:00 -5°C° 0 mm 2 mps 746 mmHg 70%
    19:00 -3°C° 0 mm 1 mps 747 mmHg 71%
    20:00 -3°C° 0 mm 1 mps 747 mmHg 72%
    21:00 -3°C° 0 mm 1 mps 747 mmHg 72%
    22:00 -3°C° 0 mm 1 mps 747 mmHg 73%
    23:00 -3°C° 0 mm 1 mps 747 mmHg 74%

    26 January, Saturday

    Time Temperature Precipitation Wind Pressure Humidity
    00:00 -4°C° 0 mm 1 mps 746 mmHg 75%
    01:00 -4°C° 0 mm 1 mps 746 mmHg 75%
    02:00 -4°C° 0 mm 1 mps 746 mmHg 74%
    03:00 -4°C° 0 mm 1 mps 746 mmHg 73%
    04:00 -4°C° 0 mm 1 mps 745 mmHg 72%
    05:00 -4°C° 0 mm 1 mps 745 mmHg 70%
    06:00 -6°C° 0 mm 2 mps 745 mmHg 69%
    07:00 -6°C° 0 mm 2 mps 745 mmHg 67%
    08:00 -5°C° 0 mm 2 mps 744 mmHg 62%
    09:00 -5°C° 0 mm 3 mps 744 mmHg 56%
    10:00 -4°C° 0 mm 3 mps 744 mmHg 51%
    11:00 -2°C° 0 mm 3 mps 743 mmHg 51%
    12:00 0°C° 0 mm 3 mps 743 mmHg 50%
    13:00 +1°C° 0 mm 3 mps 742 mmHg 49%
    14:00 0°C° 0 mm 3 mps 742 mmHg 55%
    15:00 0°C° 0 mm 3 mps 741 mmHg 62%
    16:00 0°C° 0 mm 3 mps 741 mmHg 68%
    17:00 0°C° 0 mm 3 mps 740 mmHg 73%
    18:00 -1°C° 0 mm 3 mps 740 mmHg 78%
    19:00 -1°C° 0 mm 3 mps 740 mmHg 83%
    20:00 -1°C° 0 mm 3 mps 739 mmHg 83%
    21:00 -1°C° 0 mm 4 mps 739 mmHg 84%
    22:00 -1°C° 0 mm 4 mps 739 mmHg 84%
    23:00 -1°C° 0 mm 4 mps 738 mmHg 84%
    Show more